Weather History for Seward, AK

Change the Weather History Date:

Tuesday, July 16, 2013

  Actual Average Record
Temperature  
Mean Temperature 62 °F -  
Max Temperature 71 °F 62 °F 78 °F (1996)
Min Temperature 54 °F 49 °F 42 °F (2002)
Degree Days  
Heating Degree Days 2    
Growing Degree Days 12 (Base 50)    
Moisture  
Dew Point 54 °F    
Average Humidity 80    
Maximum Humidity 97    
Minimum Humidity 55    
Precipitation  
Precipitation 0.00 in - - ()
Sea Level Pressure  
Sea Level Pressure 30.18 in    
Wind  
Wind Speed 3 mph (North)    
Max Wind Speed 13 mph    
Max Gust Speed 18 mph    
Visibility 10 miles    
Events      
Averages and records for this station are not official NWS values.
T = Trace of Precipitation, MM = Missing Value Source: NWS Daily Summary

Daily Weather History Graph

Daily Weather History Graph

Search for Another Location

Airport:

Trip Planner

Search our weather history database for the weather conditions in past years. The results will help you decide how hot, cold, wet, or windy it might be!

Date:

Astronomy

Jul. 16, 2013 Rise Set
Actual Time 5:03 AM AKDT 11:03 PM AKDT
Civil Twilight 3:45 AM AKDT 12:19 AM AKDT
Nautical Twilight Sun does not rise Sun does not rise
Astronomical Twilight Sun does not rise Sun does not rise
Moon 4:15 PM AKDT (7/16) 12:31 AM AKDT (7/16)
Length of Visible Light 20h 34m
Length of Day
18h 00m
First Quarter, 58% of the Moon is Illuminated
Jul 16
First Quarter
Jul 22
Full
Jul 29
Last Quarter
Aug 6
New
Aug 14
First Quarter

Hourly Weather History & Observations

Time (AKDT) Temp. Dew Point Humidity Pressure Visibility Wind Dir Wind Speed Gust Speed Precip Events Conditions
12:16 AM 55.4 °F 53.6 °F 94% 30.24 in 10.0 mi Calm Calm - N/A   Mostly Cloudy
12:53 AM 55.9 °F 53.1 °F 90% 30.25 in 10.0 mi Calm Calm - N/A   Overcast
1:16 AM 57.2 °F 53.6 °F 88% 30.24 in 10.0 mi Calm Calm - N/A   Overcast
1:24 AM 55.4 °F 53.6 °F 94% 30.24 in 10.0 mi Calm Calm - N/A   Overcast
1:33 AM 55.4 °F 53.6 °F 94% 30.24 in 10.0 mi Calm Calm - N/A   Overcast
1:53 AM 57.0 °F 53.1 °F 87% 30.24 in 10.0 mi Calm Calm - N/A   Overcast
2:12 AM 55.4 °F 53.6 °F 94% 30.23 in 10.0 mi Calm Calm - N/A   Overcast
2:27 AM 55.4 °F 53.6 °F 94% 30.23 in 10.0 mi Calm Calm - N/A   Overcast
2:53 AM 55.9 °F 53.1 °F 90% 30.23 in 10.0 mi Calm Calm - N/A   Overcast
3:14 AM 55.4 °F 53.6 °F 94% 30.22 in 10.0 mi Calm Calm - N/A   Overcast
3:53 AM 54.0 °F 52.0 °F 93% 30.22 in 10.0 mi Calm Calm - N/A   Partly Cloudy
4:53 AM 54.0 °F 53.1 °F 97% 30.21 in 10.0 mi Calm Calm - N/A   Clear
5:53 AM 54.0 °F 52.0 °F 93% 30.20 in 10.0 mi Calm Calm - N/A   Partly Cloudy
6:53 AM 57.0 °F 52.0 °F 83% 30.20 in 10.0 mi North 9.2 mph - N/A   Clear
7:53 AM 60.1 °F 53.1 °F 78% 30.20 in 10.0 mi NNE 8.1 mph - N/A   Clear
8:53 AM 61.0 °F 52.0 °F 72% 30.18 in 10.0 mi North 12.7 mph - N/A   Clear
9:53 AM 63.0 °F 52.0 °F 67% 30.17 in 10.0 mi North 9.2 mph 18.4 mph N/A   Clear
10:53 AM 66.0 °F 54.0 °F 65% 30.18 in 10.0 mi North 8.1 mph - N/A   Clear
11:53 AM 71.1 °F 54.0 °F 55% 30.16 in 10.0 mi North 8.1 mph 16.1 mph N/A   Partly Cloudy
12:53 PM 63.0 °F 55.9 °F 78% 30.16 in 10.0 mi South 5.8 mph - N/A   Partly Cloudy
1:53 PM 64.0 °F 57.0 °F 78% 30.16 in 10.0 mi South 11.5 mph - N/A   Clear
2:53 PM 64.0 °F 55.9 °F 75% 30.15 in 10.0 mi South 8.1 mph - N/A   Clear
3:53 PM 64.0 °F 55.9 °F 75% 30.14 in 10.0 mi SSE 8.1 mph - N/A   Clear
4:53 PM 64.9 °F 55.9 °F 73% 30.13 in 10.0 mi South 9.2 mph - N/A   Overcast
5:53 PM 64.9 °F 55.9 °F 73% 30.13 in 10.0 mi South 6.9 mph - N/A   Overcast
6:53 PM 64.0 °F 55.9 °F 75% 30.12 in 10.0 mi South 5.8 mph - N/A   Overcast
7:53 PM 64.0 °F 55.9 °F 75% 30.11 in 10.0 mi NW 4.6 mph - N/A   Partly Cloudy
8:53 PM 68.0 °F 53.1 °F 59% 30.10 in 10.0 mi North 9.2 mph - N/A   Clear
9:53 PM 68.0 °F 53.1 °F 59% 30.10 in 10.0 mi North 8.1 mph - N/A   Clear
10:53 PM 66.0 °F 52.0 °F 60% 30.10 in 10.0 mi NNE 9.2 mph - N/A   Clear
11:53 PM 64.9 °F 52.0 °F 63% 30.11 in 10.0 mi NNE 9.2 mph - N/A   Clear